Météo par heure à Mendoza

Ce jour, 29 Septembre, Mardi

Heure Température Précipitation Vent Pression Humidité
00:00 +16°C° 0 mm 2 m/s 691 mmHg 39%
01:00 +16°C° 0 mm 2 m/s 691 mmHg 42%
02:00 +15°C° 0 mm 2 m/s 691 mmHg 42%
03:00 +15°C° 0 mm 2 m/s 691 mmHg 42%
04:00 +14°C° 0 mm 2 m/s 691 mmHg 42%
05:00 +16°C° 0 mm 3 m/s 691 mmHg 36%
06:00 +17°C° 0 mm 3 m/s 692 mmHg 30%
07:00 +19°C° 0 mm 4 m/s 693 mmHg 24%
08:00 +21°C° 0 mm 4 m/s 693 mmHg 21%
09:00 +23°C° 0 mm 5 m/s 694 mmHg 17%
10:00 +26°C° 0 mm 5 m/s 694 mmHg 13%
11:00 +27°C° 0 mm 5 m/s 694 mmHg 11%
12:00 +28°C° 0 mm 5 m/s 694 mmHg 9%
13:00 +29°C° 0 mm 5 m/s 694 mmHg 8%
14:00 +29°C° 0 mm 7 m/s 693 mmHg 6%
15:00 +29°C° 0 mm 9 m/s 693 mmHg 5%
16:00 +31°C° 0 mm 11 m/s 693 mmHg 4%
17:00 +28°C° 0 mm 9 m/s 693 mmHg 5%
18:00 +26°C° 0 mm 7 m/s 693 mmHg 6%
19:00 +23°C° 0 mm 5 m/s 694 mmHg 7%
20:00 +22°C° 0 mm 4 m/s 694 mmHg 10%
21:00 +20°C° 0 mm 4 m/s 694 mmHg 13%
22:00 +19°C° 0 mm 3 m/s 694 mmHg 16%
23:00 +18°C° 0 mm 3 m/s 694 mmHg 16%

Demain, 30 Septembre, Mercredi

Heure Température Précipitation Vent Pression Humidité
00:00 +18°C° 0 mm 4 m/s 694 mmHg 15%
01:00 +18°C° 0 mm 4 m/s 693 mmHg 14%
02:00 +17°C° 0 mm 4 m/s 693 mmHg 16%
03:00 +16°C° 0 mm 3 m/s 693 mmHg 17%
04:00 +16°C° 0 mm 3 m/s 693 mmHg 18%
05:00 +17°C° 0 mm 3 m/s 694 mmHg 17%
06:00 +18°C° 0 mm 2 m/s 694 mmHg 17%
07:00 +20°C° 0 mm 2 m/s 695 mmHg 16%
08:00 +23°C° 0 mm 2 m/s 695 mmHg 14%
09:00 +24°C° 0 mm 2 m/s 695 mmHg 13%
10:00 +26°C° 0 mm 3 m/s 695 mmHg 11%
11:00 +27°C° 0 mm 3 m/s 694 mmHg 10%
12:00 +29°C° 0 mm 4 m/s 694 mmHg 8%
13:00 +30°C° 0 mm 5 m/s 694 mmHg 7%
14:00 +29°C° 0 mm 6 m/s 693 mmHg 9%
15:00 +28°C° 0 mm 7 m/s 693 mmHg 12%
16:00 +27°C° 0 mm 8 m/s 693 mmHg 14%
17:00 +24°C° 0 mm 7 m/s 693 mmHg 20%
18:00 +22°C° 0 mm 6 m/s 694 mmHg 26%
19:00 +20°C° 0 mm 5 m/s 694 mmHg 32%
20:00 +19°C° 0 mm 5 m/s 694 mmHg 34%
21:00 +17°C° 0 mm 5 m/s 695 mmHg 37%
22:00 +16°C° 0 mm 5 m/s 695 mmHg 39%
23:00 +15°C° 0 mm 4 m/s 695 mmHg 41%

Après-demain, 1 Octobre, Jeudi

Heure Température Précipitation Vent Pression Humidité
00:00 +14°C° 0 mm 4 m/s 695 mmHg 42%
01:00 +13°C° 0 mm 3 m/s 695 mmHg 43%
02:00 +12°C° 0 mm 3 m/s 695 mmHg 43%
03:00 +12°C° 0 mm 3 m/s 695 mmHg 42%
04:00 +11°C° 0 mm 3 m/s 695 mmHg 42%
05:00 +12°C° 0 mm 3 m/s 695 mmHg 38%
06:00 +12°C° 0 mm 4 m/s 696 mmHg 34%
07:00 +12°C° 0 mm 4 m/s 696 mmHg 30%
08:00 +13°C° 0 mm 4 m/s 696 mmHg 27%
09:00 +15°C° 0 mm 4 m/s 696 mmHg 25%
10:00 +17°C° 0 mm 3 m/s 696 mmHg 22%
11:00 +18°C° 0 mm 4 m/s 695 mmHg 20%
12:00 +19°C° 0 mm 4 m/s 695 mmHg 19%
13:00 +20°C° 0 mm 4 m/s 695 mmHg 17%
14:00 +20°C° 0 mm 4 m/s 695 mmHg 17%
15:00 +20°C° 0 mm 5 m/s 694 mmHg 17%
16:00 +20°C° 0 mm 5 m/s 694 mmHg 18%
17:00 +18°C° 0 mm 4 m/s 695 mmHg 20%
18:00 +17°C° 0 mm 4 m/s 696 mmHg 23%
19:00 +14°C° 0 mm 3 m/s 696 mmHg 26%
20:00 +13°C° 0 mm 3 m/s 697 mmHg 27%
21:00 +14°C° 0 mm 2 m/s 697 mmHg 29%
22:00 +13°C° 0 mm 2 m/s 697 mmHg 31%
23:00 +12°C° 0 mm 2 m/s 697 mmHg 32%

2 Octobre, Vendredi

Heure Température Précipitation Vent Pression Humidité
00:00 +11°C° 0 mm 3 m/s 697 mmHg 33%
01:00 +11°C° 0 mm 3 m/s 697 mmHg 34%
02:00 +10°C° 0 mm 3 m/s 697 mmHg 35%
03:00 +10°C° 0 mm 3 m/s 697 mmHg 37%
04:00 +9°C° 0 mm 3 m/s 697 mmHg 38%
05:00 +10°C° 0 mm 3 m/s 698 mmHg 38%
06:00 +11°C° 0 mm 4 m/s 698 mmHg 37%
07:00 +11°C° 0 mm 4 m/s 699 mmHg 36%
08:00 +13°C° 0 mm 5 m/s 699 mmHg 34%
09:00 +14°C° 0 mm 5 m/s 699 mmHg 32%
10:00 +15°C° 0 mm 5 m/s 699 mmHg 30%
11:00 +16°C° 0 mm 6 m/s 699 mmHg 30%
12:00 +17°C° 0 mm 7 m/s 698 mmHg 29%
13:00 +17°C° 0 mm 7 m/s 698 mmHg 28%
14:00 +16°C° 0 mm 7 m/s 698 mmHg 33%
15:00 +15°C° 0 mm 7 m/s 699 mmHg 38%
16:00 +13°C° 0 mm 8 m/s 699 mmHg 43%
17:00 +12°C° 0.2 mm 7 m/s 699 mmHg 49%
18:00 +11°C° 0.2 mm 7 m/s 700 mmHg 56%
19:00 +9°C° 0.2 mm 7 m/s 701 mmHg 63%
20:00 +9°C° 0.2 mm 7 m/s 701 mmHg 64%
21:00 +8°C° 0.2 mm 7 m/s 701 mmHg 65%
22:00 +6°C° 0.2 mm 7 m/s 702 mmHg 67%
23:00 +6°C° 0.1 mm 7 m/s 701 mmHg 68%

3 Octobre, Samedi

Heure Température Précipitation Vent Pression Humidité
00:00 +6°C° 0.1 mm 7 m/s 701 mmHg 69%
01:00 +7°C° 0.1 mm 6 m/s 701 mmHg 70%
02:00 +5°C° 0 mm 6 m/s 701 mmHg 72%
03:00 +6°C° 0 mm 5 m/s 701 mmHg 75%
04:00 +5°C° 0 mm 5 m/s 701 mmHg 77%
05:00 +6°C° 0 mm 5 m/s 701 mmHg 75%
06:00 +6°C° 0 mm 5 m/s 701 mmHg 72%
07:00 +7°C° 0 mm 5 m/s 701 mmHg 70%
08:00 +8°C° 0 mm 4 m/s 701 mmHg 64%
09:00 +10°C° 0 mm 4 m/s 701 mmHg 59%
10:00 +11°C° 0 mm 3 m/s 700 mmHg 54%
11:00 +12°C° 0 mm 2 m/s 700 mmHg 51%
12:00 +13°C° 0 mm 2 m/s 700 mmHg 49%
13:00 +14°C° 0 mm 1 m/s 699 mmHg 46%
14:00 +14°C° 0 mm 2 m/s 699 mmHg 47%
15:00 +13°C° 0 mm 3 m/s 699 mmHg 47%
16:00 +13°C° 0 mm 3 m/s 699 mmHg 48%
17:00 +12°C° 0 mm 3 m/s 700 mmHg 54%
18:00 +10°C° 0 mm 4 m/s 700 mmHg 60%
19:00 +8°C° 0 mm 4 m/s 701 mmHg 66%
20:00 +9°C° 0 mm 3 m/s 701 mmHg 67%
21:00 +9°C° 0 mm 2 m/s 701 mmHg 68%
22:00 +9°C° 0 mm 2 m/s 701 mmHg 70%
23:00 +9°C° 0 mm 2 m/s 701 mmHg 70%

4 Octobre, Dimanche

Heure Température Précipitation Vent Pression Humidité
00:00 +9°C° 0 mm 2 m/s 701 mmHg 70%
01:00 +10°C° 0 mm 1 m/s 700 mmHg 70%
02:00 +8°C° 0 mm 2 m/s 700 mmHg 72%
03:00 +8°C° 0 mm 2 m/s 700 mmHg 74%
04:00 +8°C° 0 mm 2 m/s 699 mmHg 76%
05:00 +8°C° 0 mm 2 m/s 699 mmHg 74%
06:00 +8°C° 0 mm 2 m/s 699 mmHg 73%
07:00 +8°C° 0 mm 2 m/s 699 mmHg 71%
08:00 +10°C° 0 mm 2 m/s 699 mmHg 65%
09:00 +12°C° 0 mm 2 m/s 699 mmHg 58%
10:00 +13°C° 0 mm 1 m/s 698 mmHg 52%
11:00 +15°C° 0 mm 1 m/s 698 mmHg 48%
12:00 +16°C° 0 mm 2 m/s 697 mmHg 45%
13:00 +17°C° 0 mm 2 m/s 697 mmHg 41%
14:00 +18°C° 0 mm 2 m/s 696 mmHg 39%
15:00 +18°C° 0 mm 2 m/s 696 mmHg 37%
16:00 +19°C° 0 mm 2 m/s 696 mmHg 35%
17:00 +18°C° 0 mm 2 m/s 696 mmHg 38%
18:00 +17°C° 0 mm 2 m/s 697 mmHg 41%
19:00 +16°C° 0 mm 2 m/s 697 mmHg 44%
20:00 +15°C° 0 mm 2 m/s 697 mmHg 49%
21:00 +14°C° 0 mm 1 m/s 697 mmHg 54%
22:00 +13°C° 0 mm 1 m/s 697 mmHg 59%
23:00 +13°C° 0 mm 1 m/s 697 mmHg 62%
Voir plus

We Need Your Consent

Meteoprog and our Service Providers may store and access personal data such as cookies, device identifiers or other similar technologies on your device and process such data to personalise content and ads, as well as provide social media features and to analyse the traffic.

  • Store and/or access information on your device

    Cookies, device identifiers or other information can be stored or accessed on your device for the purposes indicated above.

  • Personalised ads and content, ad and content measurement, audience insights, and products development

    Ads and content can be personalised based on a profile. More data can be added to better personalise ads and content. Ad and content performance can be measured. Insights about the audience who saw the ads and content can be derived. Such data can be used to develop or improve user’s experience, systems and software.

By clicking ‘I Agree’ you will allow the use of indicated cookies, device identifiers, web beacons or other similar technologies. Your settings can be changed in the browser on your device.

For certain purposes, legitimate interests may be relied on, rather than consent. You can read more about this in our Privacy and Cookie Policy.